DLH1AN EDDS-EDDF

Flight info

Callsign DLH1AN
Flight time 0h 26m
Altitude 22000
Route ETASA4B ETASA T163 SPESA SPESA5C
Aircraft A321/M-SDE3FGHIRWY/LB1

Departure

Time 2026-05-07 19:20
Airport Stuttgart Airport (EDDS)

Arrival

Time 2026-05-07 19:46
Airport Frankfurt Main Airport (EDDF)
Time Latitude Longitude Altitude Speed Heading
2026-05-07 18:53 48.68893 9.19430 1315 ft 0 kts 344°
2026-05-07 19:06 48.68891 9.19430 1315 ft 2 kts 344°
2026-05-07 19:07 48.68866 9.19441 1314 ft 4 kts 344°
2026-05-07 19:07 48.68845 9.19451 1313 ft 4 kts 353°
2026-05-07 19:07 48.68823 9.19445 1313 ft 4 kts 51°
2026-05-07 19:07 48.68813 9.19413 1313 ft 1 kts 74°
2026-05-07 19:08 48.68812 9.19412 1313 ft 1 kts 74°
2026-05-07 19:09 48.68813 9.19415 1313 ft 1 kts 74°
2026-05-07 19:10 48.68823 9.19471 1312 ft 12 kts 74°
2026-05-07 19:10 48.68851 9.19619 1309 ft 17 kts 74°
2026-05-07 19:10 48.68884 9.19799 1305 ft 12 kts 73°
2026-05-07 19:10 48.68835 9.19900 1299 ft 16 kts 149°
2026-05-07 19:11 48.68835 9.20014 1295 ft 10 kts 72°
2026-05-07 19:11 48.68858 9.20136 1292 ft 14 kts 73°
2026-05-07 19:11 48.68889 9.20300 1288 ft 19 kts 74°
2026-05-07 19:11 48.68931 9.20521 1282 ft 24 kts 74°
2026-05-07 19:12 48.68981 9.20782 1277 ft 27 kts 74°
2026-05-07 19:12 48.69036 9.21071 1277 ft 30 kts 74°
2026-05-07 19:12 48.69094 9.21389 1269 ft 33 kts 75°
2026-05-07 19:12 48.69156 9.21717 1258 ft 29 kts 73°
2026-05-07 19:13 48.69218 9.22020 1249 ft 31 kts 73°
2026-05-07 19:13 48.69269 9.22307 1249 ft 21 kts 73°
2026-05-07 19:13 48.69314 9.22539 1242 ft 25 kts 74°
2026-05-07 19:13 48.69364 9.22806 1230 ft 27 kts 74°
2026-05-07 19:14 48.69416 9.23088 1224 ft 27 kts 74°
2026-05-07 19:14 48.69470 9.23360 1218 ft 28 kts 73°
2026-05-07 19:14 48.69497 9.23511 1215 ft 6 kts 75°
2026-05-07 19:14 48.69508 9.23571 1214 ft 0 kts 74°
2026-05-07 19:16 48.69509 9.23574 1214 ft 2 kts 74°
2026-05-07 19:16 48.69517 9.23654 1212 ft 14 kts 95°
2026-05-07 19:17 48.69433 9.23746 1206 ft 17 kts 195°
2026-05-07 19:17 48.69377 9.23686 1205 ft 0 kts 223°
2026-05-07 19:18 48.69373 9.23680 1205 ft 4 kts 223°
2026-05-07 19:18 48.69322 9.23608 1204 ft 14 kts 223°
2026-05-07 19:18 48.69251 9.23507 1207 ft 12 kts 223°
2026-05-07 19:18 48.69222 9.23428 1209 ft 8 kts 255°
2026-05-07 19:19 48.69220 9.23418 1209 ft 0 kts 255°
2026-05-07 19:19 48.69206 9.23340 1210 ft 34 kts 255°
2026-05-07 19:19 48.69064 9.22593 1225 ft 111 kts 254°
2026-05-07 19:20 48.68796 9.21154 1352 ft 162 kts 255°
2026-05-07 19:20 48.68494 9.19495 2127 ft 163 kts 255°
2026-05-07 19:20 48.68176 9.17835 2851 ft 167 kts 255°
2026-05-07 19:20 48.67825 9.16044 3199 ft 188 kts 254°
2026-05-07 19:21 48.67426 9.14030 3492 ft 211 kts 253°
2026-05-07 19:21 48.67012 9.11790 3733 ft 233 kts 262°
2026-05-07 19:21 48.67305 9.09356 4159 ft 245 kts 302°
2026-05-07 19:21 48.68358 9.07339 5010 ft 245 kts 317°
2026-05-07 19:22 48.69847 9.06056 5674 ft 257 kts 342°
2026-05-07 19:22 48.71611 9.05268 6266 ft 268 kts 342°
2026-05-07 19:22 48.73407 9.04418 7032 ft 272 kts 340°
2026-05-07 19:22 48.75217 9.03518 7789 ft 276 kts 340°
2026-05-07 19:23 48.77095 9.02821 8534 ft 282 kts 355°
2026-05-07 19:23 48.79070 9.03126 9268 ft 289 kts
2026-05-07 19:23 48.81066 9.03690 10026 ft 293 kts
2026-05-07 19:23 48.83114 9.04283 10413 ft 310 kts
2026-05-07 19:24 48.85316 9.04923 10570 ft 333 kts
2026-05-07 19:24 48.87669 9.05612 10695 ft 355 kts
2026-05-07 19:24 48.90108 9.06328 11059 ft 366 kts
2026-05-07 19:24 48.92625 9.07067 11664 ft 371 kts
2026-05-07 19:25 48.95167 9.07810 12304 ft 374 kts 10°
2026-05-07 19:25 48.97737 9.08558 12978 ft 376 kts 10°
2026-05-07 19:25 49.00310 9.09313 13621 ft 379 kts 10°
2026-05-07 19:25 49.02912 9.10078 14214 ft 382 kts 10°
2026-05-07 19:26 49.05531 9.10849 14764 ft 385 kts 10°
2026-05-07 19:26 49.08179 9.11624 15318 ft 389 kts
2026-05-07 19:26 49.10845 9.12404 15868 ft 392 kts
2026-05-07 19:26 49.13542 9.13189 16416 ft 396 kts
2026-05-07 19:27 49.16256 9.13987 16943 ft 399 kts
2026-05-07 19:27 49.18996 9.14789 17494 ft 402 kts
2026-05-07 19:27 49.21750 9.15597 18018 ft 405 kts
2026-05-07 19:27 49.24527 9.16411 18507 ft 408 kts
2026-05-07 19:28 49.27320 9.17231 18952 ft 410 kts
2026-05-07 19:28 49.30135 9.18064 19415 ft 413 kts
2026-05-07 19:28 49.32962 9.18902 19881 ft 415 kts
2026-05-07 19:28 49.35806 9.19745 20353 ft 417 kts
2026-05-07 19:29 49.38658 9.20594 20827 ft 419 kts
2026-05-07 19:29 49.41533 9.21447 21317 ft 421 kts
2026-05-07 19:29 49.44416 9.22297 21780 ft 423 kts
2026-05-07 19:29 49.47315 9.23155 22025 ft 424 kts
2026-05-07 19:30 49.50247 9.24022 22073 ft 435 kts
2026-05-07 19:30 49.53239 9.24909 22073 ft 440 kts
2026-05-07 19:30 49.56247 9.25808 22067 ft 441 kts
2026-05-07 19:30 49.59257 9.26711 22052 ft 438 kts
2026-05-07 19:31 49.62219 9.27604 21442 ft 429 kts
2026-05-07 19:31 49.65124 9.28478 20796 ft 422 kts
2026-05-07 19:31 49.67987 9.29336 20165 ft 416 kts
2026-05-07 19:31 49.70805 9.30186 19547 ft 410 kts
2026-05-07 19:32 49.73590 9.31016 18939 ft 405 kts
2026-05-07 19:32 49.76409 9.31171 18339 ft 411 kts 351°
2026-05-07 19:32 49.79168 9.30042 17719 ft 411 kts 334°
2026-05-07 19:32 49.81570 9.27705 17188 ft 407 kts 317°
2026-05-07 19:33 49.83383 9.24411 16671 ft 401 kts 300°
2026-05-07 19:33 49.84592 9.20531 16151 ft 399 kts 293°
2026-05-07 19:33 49.85695 9.16605 15642 ft 396 kts 293°
2026-05-07 19:33 49.86651 9.12626 15122 ft 393 kts 283°
2026-05-07 19:34 49.86942 9.08443 14651 ft 390 kts 272°
2026-05-07 19:34 49.87038 9.04245 14162 ft 388 kts 272°
2026-05-07 19:34 49.87125 9.00076 13661 ft 386 kts 271°
2026-05-07 19:34 49.87204 8.95932 13127 ft 383 kts 271°
2026-05-07 19:35 49.87281 8.91815 12604 ft 381 kts 271°
2026-05-07 19:35 49.87358 8.87721 12086 ft 379 kts 272°
2026-05-07 19:35 49.87437 8.83650 11578 ft 376 kts 272°
2026-05-07 19:35 49.87515 8.79607 11078 ft 374 kts 272°
2026-05-07 19:36 49.87590 8.75584 10586 ft 372 kts 272°
2026-05-07 19:36 49.87660 8.71580 10095 ft 371 kts 271°
2026-05-07 19:36 49.87726 8.67667 9576 ft 362 kts 271°
2026-05-07 19:36 49.87788 8.63793 9041 ft 352 kts 272°
2026-05-07 19:37 49.87851 8.60049 8521 ft 343 kts 272°
2026-05-07 19:37 49.87915 8.56393 8006 ft 335 kts 272°
2026-05-07 19:37 49.87975 8.52826 7498 ft 328 kts 271°
2026-05-07 19:37 49.88032 8.49331 7005 ft 321 kts 272°
2026-05-07 19:38 49.88087 8.45944 6503 ft 316 kts 272°
2026-05-07 19:38 49.88138 8.42556 5989 ft 311 kts 272°
2026-05-07 19:38 49.88216 8.39280 5464 ft 294 kts 278°
2026-05-07 19:38 49.88756 8.36357 4963 ft 273 kts 296°
2026-05-07 19:39 49.89539 8.33764 4447 ft 259 kts 296°
2026-05-07 19:39 49.90278 8.31319 4158 ft 239 kts 296°
2026-05-07 19:39 49.90955 8.29074 4059 ft 222 kts 296°
2026-05-07 19:39 49.91582 8.26993 4017 ft 203 kts 296°
2026-05-07 19:40 49.92326 8.25303 4019 ft 179 kts 320°
2026-05-07 19:40 49.93351 8.24454 4015 ft 159 kts 346°
2026-05-07 19:40 49.94415 8.24383 4019 ft 152 kts 10°
2026-05-07 19:40 49.95384 8.24978 4041 ft 148 kts 32°
2026-05-07 19:41 49.96100 8.26091 3967 ft 146 kts 55°
2026-05-07 19:41 49.96508 8.27532 3831 ft 146 kts 67°
2026-05-07 19:41 49.96876 8.29041 3656 ft 160 kts 67°
2026-05-07 19:41 49.97288 8.30740 3438 ft 172 kts 68°
2026-05-07 19:42 49.97712 8.32492 3194 ft 173 kts 68°
2026-05-07 19:42 49.98137 8.34248 2955 ft 173 kts 68°
2026-05-07 19:42 49.98554 8.35971 2722 ft 172 kts 68°
2026-05-07 19:42 49.98974 8.37711 2494 ft 171 kts 68°
2026-05-07 19:43 49.99390 8.39436 2253 ft 170 kts 69°
2026-05-07 19:43 49.99800 8.41137 2021 ft 161 kts 69°
2026-05-07 19:43 50.00172 8.42681 1808 ft 146 kts 69°
2026-05-07 19:43 50.00519 8.44122 1631 ft 140 kts 69°
2026-05-07 19:44 50.00857 8.45523 1442 ft 138 kts 69°
2026-05-07 19:44 50.01194 8.46924 1265 ft 138 kts 69°
2026-05-07 19:44 50.01529 8.48316 1073 ft 137 kts 69°
2026-05-07 19:44 50.01864 8.49705 878 ft 137 kts 69°
2026-05-07 19:45 50.02200 8.51085 697 ft 136 kts 68°
2026-05-07 19:45 50.02531 8.52465 508 ft 135 kts 69°
2026-05-07 19:45 50.02853 8.53839 347 ft 135 kts 70°
2026-05-07 19:45 50.03145 8.55059 343 ft 99 kts 69°
2026-05-07 19:46 50.03328 8.55816 347 ft 50 kts 70°
2026-05-07 19:46 50.03413 8.56147 354 ft 27 kts 63°
2026-05-07 19:46 50.03529 8.56374 352 ft 28 kts 43°
2026-05-07 19:46 50.03684 8.56556 356 ft 27 kts 38°
2026-05-07 19:47 50.03809 8.56766 355 ft 26 kts 65°
2026-05-07 19:47 50.03860 8.57041 360 ft 26 kts 69°
2026-05-07 19:47 50.03927 8.57294 364 ft 24 kts 69°
2026-05-07 19:47 50.03984 8.57538 368 ft 24 kts 70°
2026-05-07 19:48 50.04042 8.57783 368 ft 25 kts 69°
2026-05-07 19:48 50.04116 8.58085 369 ft 40 kts 69°
2026-05-07 19:48 50.04236 8.58550 370 ft 48 kts 68°
2026-05-07 19:48 50.04340 8.59026 377 ft 45 kts 71°
2026-05-07 19:49 50.04425 8.59402 376 ft 16 kts 68°
2026-05-07 19:49 50.04530 8.59470 374 ft 23 kts 359°
2026-05-07 19:49 50.04767 8.59418 372 ft 32 kts 337°
2026-05-07 19:49 50.04858 8.59230 369 ft 16 kts 293°
2026-05-07 19:50 50.04918 8.59189 365 ft 2 kts
2026-05-07 19:50 50.04925 8.59189 365 ft 1 kts 360°
2026-05-07 19:50 50.04923 8.59189 365 ft 1 kts
2026-05-07 19:50 50.04913 8.59188 365 ft 2 kts 359°
2026-05-07 19:51 50.04920 8.59184 365 ft 0 kts 346°